Torna al catalogo

DIAMANT R/B

AttivoLEO
NORAD 2671·ROCKET BODY·🇫🇷 France

Lanciato Feb 8, 1967 da Hammaguir Space Track Range

Loading…

Prossimi Passaggi (prossime 24 ore)

TLE

AggiornatoSource: Space-Track

Epoca: Sep 14, 2026, 09:17 UTC

1 02671U 67011B   26257.38731028  .00001286  00000-0  26026-3 0  9991
2 02671  39.9469  48.3445 0330404 209.7351 148.4267 14.35130196 68343

Traccia DIAMANT R/B in tempo reale con AllMySat

Download on the App Store